Regional Weather Roundup
Issued by NWS Spokane, WA

Home | Current Version | Previous Version | Text Only | Print | Product List | Glossary On
Versions: 1 2 3 4 5 6 7 8 9 10 11 12 13 14 15 16 17 18 19 20 21 22 23 24 25 26 27 28 29 30 31 32 33 34 35 36 37 38 39 40 41 42 43 44 45 46 47 48 49 50
000
NZUS01 KOTX 220705
RWROTX
EASTERN WASHINGTON/NORTHERN IDAHO ROUNDUP
NATIONAL WEATHER SERVICE, SPOKANE WA
1200 AM PDT WED OCT 22 2014

Note: "fair" indicated few or no clouds below 12,000 feet with no
significant weather and/or obstructions to visibility.

...NORTHEAST WASHINGTON AND NORTHERN IDAHO PANHANDLE...

CITY           SKY/WX    TMP DP  RH WIND       PRES   REMARKS
SPOKANE INTL   CLEAR     44  39  82 SE9       29.97S
SPOKANE DOWNTO CLEAR     45  40  82 N5        29.98S
COEUR D ALENE  PTCLDY    46  39  76 S5        29.98S
DEER PARK      CLEAR     39  37  92 CALM      29.98R
SANDPOINT      CLEAR     41  41 100 S5        29.98S

...SOUTHEAST WASHINGTON AND SOUTHERN IDAHO PANHANDLE...

CITY           SKY/WX    TMP DP  RH WIND       PRES   REMARKS
WALLA WALLA    CLEAR     50  39  66 E6        29.94F
PULLMAN/MOSCOW CLEAR     40  35  83 E3        30.01S
LEWISTON       CLEAR     47  38  71 SE3       30.00S
LOWELL           N/A     47  44  90 SW5       30.09S

...COLUMBIA BASIN...

CITY           SKY/WX    TMP DP  RH WIND       PRES   REMARKS
EPHRATA        CLEAR     44  41  89 N6        29.90F
MOSES LAKE     CLEAR     46  42  86 S7        29.91F
TRI CITIES     PTCLDY    47  44  90 E3        29.93F
HERMISTON      PTCLDY    45  40  82 SE3       29.92F
PENDLETON      PTCLDY    43  37  79 CALM      29.94S

...EAST SLOPES CASCADES...

CITY           SKY/WX    TMP DP  RH WIND       PRES   REMARKS
THE DALLES     CLOUDY    50  46  86 E3        29.91F
YAKIMA         CLOUDY    44  39  82 W5        29.90F
ELLENSBURG     MOCLDY    44  39  82 S3        29.89F
WENATCHEE      PTCLDY    49  40  71 NE9       29.87F
OMAK           PTCLDY    49  40  71 SW9       29.89S

...SOUTHERN BRITISH COLUMBIA...

CITY           SKY/WX    TMP DP  RH WIND       PRES   REMARKS

...WESTERN MONTANA...

CITY           SKY/WX    TMP DP  RH WIND       PRES   REMARKS
MISSOULA       CLOUDY    45  41  86 SE7       30.06R

...NEIGHBORING CITIES...

CITY           SKY/WX    TMP DP  RH WIND       PRES   REMARKS
SEATTLE        CLOUDY    58  45  62 SE10      29.75F



USA.gov is the U.S. government's official web portal to all federal, state and local government web resources and services.